Location: Vancouver
(49.2500°N, 123.1330°W)
Time: 17:14:47
(UTC-07:00)

Iridium 21 - Visible Passes

Search period start: 17 April 2014 00:00
Search period end: 27 April 2014 00:00
Orbit: 776 x 779 km, 86.4° (Epoch: 17 April)

Date Brightness Start Highest point End Pass type
(mag) Time Alt. Az. Time Alt. Az. Time Alt. Az.
17 Apr 5.4 22:10:05 10° N 22:15:20 84° E 22:18:12 28° S visible
17 Apr 8.0 23:52:27 10° NW 23:55:19 15° WNW 23:58:10 10° WSW visible
18 Apr 5.8 21:36:38 10° N 21:41:43 49° E 21:45:08 20° SSE visible
18 Apr 7.4 23:17:57 10° NNW 23:22:08 25° W 23:25:38 13° SW visible
19 Apr 6.5 21:03:25 10° NNE 21:07:58 29° ENE 21:12:05 12° SE visible
19 Apr 6.6 22:43:57 10° NNW 22:48:50 42° W 22:52:35 16° SSW visible
20 Apr 5.7 22:10:12 10° N 22:15:25 72° W 22:19:33 16° S visible
20 Apr 8.3 23:54:01 10° WNW 23:55:08 11° WNW 23:56:14 10° W visible
21 Apr 5.5 21:36:39 10° N 21:41:52 68° E 21:46:33 13° SSE visible
21 Apr 7.9 23:18:31 10° NW 23:22:01 19° WNW 23:25:31 10° WSW visible
22 Apr 6.1 21:03:17 10° N 21:08:12 40° ENE 21:13:05 10° SSE visible
22 Apr 7.2 22:44:17 10° NNW 22:48:48 31° W 22:53:17 10° SW visible
23 Apr 6.3 22:10:23 10° NNW 22:15:27 51° W 22:20:28 10° SSW visible
24 Apr 5.6 21:36:43 10° N 21:41:58 88° W 21:47:11 10° S visible
24 Apr 8.2 23:19:26 10° NW 23:21:52 13° WNW 23:24:18 10° WSW visible
25 Apr 5.7 21:03:14 10° N 21:08:23 55° E 21:13:29 10° SSE visible
25 Apr 7.7 22:44:44 10° NNW 22:48:42 23° WNW 22:52:40 10° SW visible
26 Apr 6.9 22:10:39 10° NNW 22:15:26 37° W 22:20:11 10° SSW visible
